NOAA 16 DEB

Satellite information

Favourite Embed

Satellite Type and Status

DEBRISIN ORBIT

Key statistics

Satellite NOAA 16 DEB at a glance.

Uptime

9115

Days in orbit

Revolutions

≈ 14.2

Per day

Orbit

SSO

Sun Synchronous Orbit

Inclination

98.6

Latest

Satellite identification and parameters

Extended collection of information and parameters for NOAA 16 DEB.

Object identification

Identified? True

Debris? True

Object name: NOAA 16 DEB

International designator: 2000-055TA

Object number (NORAD): 42406

Object ID (CCSDS): 42406

Country: UNITED STATES OF AMERICA (US)

Current information (Y/N): Y

RCS size: SMALL

Orbital parameters

Period: 101.449 minutes

Inclination: 98.6066 deg

SMA: 7205.417 km

Apoapsis: 840.007 km

Periapsis: 814.557 km

RAAN: 304.9938 deg

Eccentricy: 0.00176603

Argument of periapsis: 70.6558 deg

Mean anomaly: 289.6526 deg

Mean motion: 14.19430302 rev/day

Mean motion (dot): 0.00002119 rev/day2

B* drag term: 0.0010256361 1/REarth

Two-line elements (TLE)

Creation date: Sept. 2, 2025, 11:42 p.m.

Reference frame: TEME

Reference center: EARTH

Epoch: Sept. 2, 2025, 10:51 a.m. UTC

TLE line 0: 0 NOAA 16 DEB

TLE line 1: 1 42406U 00055TA 25245.45244856 .00002119 00000-0 10256-2 0 9991

TLE line 2: 2 42406 98.6066 304.9938 0017660 70.6558 289.6526 14.19430302488184

Live tracking on map

Real-time ground track for satellite NOAA 16 DEB.

In-orbit conjunctions

A list of the most updated potential collisions computed for object NOAA 16 DEB.

Target Orbit TCA Probability of collision Miss distance Type
COSMOS 1603 DEB LEO 2024-11-14 10:38:32 0.0007843578 205.0 (m) DEBRIS
COSMOS 1275 DEB LEO 2024-11-13 22:41:11 0.0001487399 292.0 (m) DEBRIS

Associated space launch

The NOAA K, L and M POES satellites begin the fifth generation of improved environmental monitoring in support of NOAA missions. The instrument payload has significant improvements and additions/deletions. The instrument changes have effected the spacecraft subsystems and data formats.

NOAA 16 DEB was lifted into orbit during the mission ‘Titan II SLV | NOAA 16’, on board a Titan II SLV space rocket.

The launch took place on Sept. 21, 2000, 10:22 a.m. from Space Launch Complex 4W.

For more information about the launch, click the button.

Launch to space Titan II SLV | NOAA 16
Titan II SLV | NOAA 16

Agency: N/A

Status: Launch Successful

Launch date: Sept. 21, 2000, 10:22 a.m. UTC

Rocket: Titan II SLV

Launch pad: Space Launch Complex 4W

Location: Vandenberg SFB, CA, USA

...

Latest news about this satellite

There are no fresh news available about this satellite. Check back as we update our databases every day.


Newsletter sign-up

Weekly statistics, charts and insights to help you stay on top of the space industry.